User: anonymous   Login
Location: Unspecified
(0.0000°N, 0.0000°E)
Time: 08:38:02
(UTC+00:00)
Language:

XIAOXIANG 2 - Orbit

View from above orbital plane
View from above orbital plane
View from above satellite
View from above satellite

Ground track
Ground track

The orbit data is extracted from the following two-line orbital elements,

1 43155U 18008A   21024.87973856  .00000723  00000-0  45541-4 0  9992
2 43155  97.4221  94.0560 0018993 103.4611   9.5647 15.12073054166377
Epoch (UTC): 24 January 2021 21:06:49
Eccentricity: 0.0018993
inclination: 97.4221°
perigee height: 517 km
apogee height: 543 km
right ascension of ascending node: 94.0560°
argument of perigee: 103.4611°
revolutions per day: 15.12073054
mean anomaly at epoch: 9.5647°
orbit number at epoch: 16637

The dashed part of the orbit path shows where the satellite is in the earth's shadow,  

DLR